User: anonymous   Login
Location: Chatou
(48.8898°N, 2.1586°E)
Time: 22:27:28
(UTC+00:00)
Language:

Cosmos 44 Rocket - Orbit

View from above orbital plane
View from above orbital plane
View from above satellite
View from above satellite

Ground track
Ground track

The orbit data is extracted from the following two-line orbital elements,

1   877U 64053B   24256.88578265  .00001538  00000-0  33263-3 0  9995
2   877  65.0769 121.6551 0059094 166.6252 193.6431 14.60535158187497
Epoch (UTC): 12 September 2024 21:15:31
Eccentricity: 0.0059094
inclination: 65.0769°
perigee height: 649 km
apogee height: 733 km
right ascension of ascending node: 121.6551°
argument of perigee: 166.6252°
revolutions per day: 14.60535158
mean anomaly at epoch: 193.6431°
orbit number at epoch: 18749

The dashed part of the orbit path shows where the satellite is in the earth's shadow,  

DLR